Regional Weather Roundup
Issued by NWS

Home | Current Version | Previous Version | Graphics & Text | Print | Product List | Glossary On
Versions: 1 2 3 4 5 6 7 8 9 10 11 12 13 14 15 16 17 18 19 20 21 22 23 24 25 26 27 28 29 30 31 32 33 34 35 36 37 38 39 40 41 42 43 44 45 46 47 48 49 50
114
ASUS45 KABQ 231210
RWRNM
NEW MEXICO REGIONAL WEATHER ROUNDUP
NATIONAL WEATHER SERVICE ALBUQUERQUE NM
600 AM MDT TUE MAY 23 2017

NOTE: "FAIR" MEANS FEW OR NO CLOUDS BELOW 12,000 FEET AGL WITH NO
       SIGNIFICANT WEATHER OR OBSTRUCTIONS TO VISION.

      THIS PRODUCT IS RELEASED AS TWO VERSIONS.  ONE VERSION NEAR
      THE TOP OF THE HOUR CONTAINING PRELIMINARY DATA FROM ALBUQUERQUE
      AND OTHER STATIONS.  A FINAL VERSION WITH ADDITIONAL DATA IS
      ISSUED ABOUT 10 MINUTES AFTER THE HOUR.

NMZ501-503-504-510>518-231300-
NORTHWEST PLATEAU/NORTHCENTRAL MOUNTAINS

CITY           SKY/WX    TMP DP  RH WIND       PRES   REMARKS
FARMINGTON     FAIR      50  31  48 SW5       30.13R
6HR MIN TEMP:  45; 6HR MAX TEMP:  57;

LOS ALAMOS     CLOUDY    47  40  76 S3        30.20R
SANTA FE       MOCLDY    46  41  82 SE12      30.17R
6HR MIN TEMP:  46; 6HR MAX TEMP:  55;

TAOS           CLOUDY    46  28  49 N8        30.19S
ANGEL FIRE     CLOUDY    35  33  92 CALM      30.25R

$$
NMZ402-403-502-505>509-231300-
WESTCENTRAL MOUNTAINS/SOUTHWEST MOUNTAINS

CITY           SKY/WX    TMP DP  RH WIND       PRES   REMARKS
GALLUP         FAIR      32  23  69 NE6       30.22R WCI  26
6HR MIN TEMP:  32; 6HR MAX TEMP:  48;

GRANTS         FAIR      38  21  50 CALM      30.21R
SILVER CITY    FAIR      47  18  31 NW9       30.12S

$$
NMZ407-409-411-412-231300-
SOUTHERN DESERTS

CITY           SKY/WX    TMP DP  RH WIND       PRES   REMARKS
DEMING         FAIR      62  18  18 CALM      30.05R
6HR MIN TEMP:  57; 6HR MAX TEMP:  70;

LAS CRUCES     FAIR      64  23  20 N12       30.05R
HOLLOMAN AFB   CLEAR     56  40  53 N12       30.06R
ALAMOGORDO     FAIR      54  21  28 CALM      30.04R
T OR C         FAIR      57  18  21 NW9       30.07R
6HR MIN TEMP:  57; 6HR MAX TEMP:  69;


$$
NMZ519>523-231300-
CENTRAL VALLEYS/CENTRAL HIGHLANDS

CITY           SKY/WX    TMP DP  RH WIND       PRES   REMARKS
ALBUQUERQUE    FAIR      55  43  63 NE12      30.12R
6HR MIN TEMP:  55; 6HR MAX TEMP:  66;

DOUBLE EAGLE   PTCLDY    45  37  76 VRB5      30.15
MORIARTY ARPT  CLOUDY    50  43  78 CALM      30.20S
6HR MIN TEMP:  48; 6HR MAX TEMP:  55;

CLINES CORNERS CLOUDY    42  36  79 E14       30.22R
6HR MIN TEMP:  42; 6HR MAX TEMP:  50;

BELEN          FAIR      49  29  45 SW8       30.12S
6HR MIN TEMP:  45; 6HR MAX TEMP:  57;

SOCORRO        FAIR      53  34  49 NW6       30.11R
6HR MIN TEMP:  51; 6HR MAX TEMP:  61;


$$
NMZ524>526-539-540-231300-
SOUTHCENTRAL MOUNTAINS

CITY           SKY/WX    TMP DP  RH WIND       PRES   REMARKS
RUIDOSO        CLOUDY    46  45  93 S5        30.23R

$$
NMZ527>531-231300-
NORTHEAST HIGHLANDS/NORTHEAST PLAINS

CITY           SKY/WX    TMP DP  RH WIND       PRES   REMARKS
LAS VEGAS      CLOUDY    39  33  79 NE16      30.22R WCI  30
6HR MIN TEMP:  39; 6HR MAX TEMP:  45;

RATON          LGT RAIN  39  32  76 N15       30.22S WCI  31
6HR MIN TEMP:  39; 6HR MAX TEMP:  43; 6HR PCP: TRACE;

CLAYTON        CLOUDY    42  38  85 NW14      30.18R
6HR MIN TEMP:  41; 6HR MAX TEMP:  46; 6HR PCP: TRACE;


$$
NMZ532>537-231300-
EASTCENTRAL PLAINS

CITY           SKY/WX    TMP DP  RH WIND       PRES   REMARKS
SANTA ROSA     CLOUDY    47  40  76 N8        30.18R
TUCUMCARI      LGT RAIN  49  44  83 N9        30.16S
6HR MIN TEMP:  49; 6HR MAX TEMP:  57; 6HR PCP:  0.38;

CANNON AFB     CLOUDY    47  47 100 N18       30.13S
6HR MIN TEMP:  47; 6HR MAX TEMP:  56; 6HR PCP:  0.12;

CLOVIS AIRPORT CLOUDY    46  39  76 N21       30.13S

$$
NMZ028-029-538-231300-
SOUTHEAST PLAINS

CITY           SKY/WX    TMP DP  RH WIND       PRES   REMARKS
ROSWELL        CLOUDY    57  44  62 NE20      30.13R
6HR MIN TEMP:  57; 6HR MAX TEMP:  62;

ARTESIA        CLOUDY    59  54  82 N18G26    30.11R
CARLSBAD       CLOUDY    58  55  90 NW13      30.05R
6HR MIN TEMP:  55; 6HR MAX TEMP:  65;

HOBBS          MOCLDY    57  50  77 N15G22    30.08R


$$




USA.gov is the U.S. government's official web portal to all federal, state and local government web resources and services.